Tracking 32139 objects as of 14-Nov-2025
HD Live streaming from Space Station
objects crossing your sky now

STARLINK-6247

Track STARLINK-6247 now!
10-day predictions
STARLINK-6247 is classified as:


NORAD ID: 57086
Int'l Code: 2023-088AQ
Perigee: 565.4 km
Apogee: 567.0 km
Inclination: 43.0 °
Period: 95.8 minutes
Semi major axis: 6937 km
RCS: Unknown
Launch date: June 22, 2023
Source: United States (US)
Launch site: AIR FORCE WESTERN TEST RANGE (AFWTR)
Your satellite tracking list
Your tracking list is empty




NASA's NSSDC Master Catalog

Two Line Element Set (TLE):
1 57086U 23088AQ  25317.52147110  .00000832  00000-0  76621-4 0  9995
2 57086  43.0037   5.8067 0001104 269.3134  90.7582 15.02541729133043
Source of the keplerian elements: AFSPC